Location: Hannover
(52.3723°N, 9.7339°E)
Time: 21:26:43
(UTC+01:00)

ISS - Pass Details

Date: 12 November 2017
Orbit: 401 x 407 km, 51.6° (Epoch: 25 November)

Event Time Altitude Azimuth Distance (km) Brightness Sun altitude
Exits shadow 05:52:57 36° 248° (WSW) 660 -3.2 -15.8°
Maximum altitude 05:53:51 48° 200° (SSW) 533 -3.4 -15.7°
Drops below altitude 10° 05:57:00 10° 124° (SE) 1,453 0.0 -15.2°
Sets 05:59:07 0° 119° (ESE) 2,311 1.5 -14.9°
